Wind_Speed
17 18 18 19 20 22 24 25 26 27 28 29 29 29 30 31 33 34 34 33 33 33 31 30 30 30 29 28 26 22 19 19 18 17 17 16 14 12 9 8 6 4 6
19 20 22 22 23 24 26 27 28 28 28 29 29 29 29 29 30 30 30 31 31 31 29 29 30 31 30 28 26 24 21 21 21 20 18 17 15 12 10 8 8 7 8
23 24 25 25 25 27 28 29 31 31 32 32 32 32 31 29 28 28 28 29 29 30 29 28 30 31 31 29 28 26 24 23 23 21 19 18 17 15 12 11 11 11 11
27 27 27 28 29 29 30 31 32 33 34 34 34 34 32 30 28 28 28 28 28 28 28 27 28 30 30 29 28 27 25 25 24 22 20 20 19 17 15 14 14 15 15
31 31 32 33 34 35 35 35 36 35 36 37 36 34 32 32 31 29 28 28 26 25 24 24 26 27 28 28 28 26 24 24 24 24 23 22 20 19 17 16 16 17 18
34 35 36 37 38 39 39 40 40 39 38 37 36 35 34 33 32 30 29 28 28 27 25 24 25 26 26 26 27 26 24 22 22 23 23 23 22 21 20 18 18 18 18
37 38 40 41 41 42 42 41 41 40 39 37 36 35 35 34 33 32 31 29 29 29 28 27 27 28 28 28 29 28 28 26 26 26 23 21 21 21 21 20 20 20 20
38 40 42 44 45 45 45 43 41 40 40 38 36 34 33 33 33 32 30 28 28 28 27 27 27 28 28 28 29 29 29 29 30 30 30 27 25 24 25 26 25 24 24
37 38 40 41 42 42 42 42 41 40 40 39 36 34 33 33 33 33 32 30 30 29 28 28 28 27 27 28 28 29 29 29 31 32 32 31 29 28 29 30 30 29 28
32 33 33 33 33 33 33 34 35 36 37 38 38 37 37 37 37 36 36 35 33 32 31 31 31 30 29 29 29 29 30 30 31 32 33 32 31 31 31 31 31 31 31
23 23 24 24 24 25 26 27 29 31 32 32 33 35 36 38 40 40 40 40 38 36 35 35 35 34 34 34 33 33 32 32 32 32 33 34 34 35 35 36 35 34 34
13 14 15 17 19 21 23 25 26 26 26 25 27 29 30 32 35 39 41 43 43 43 41 39 39 38 37 37 36 35 35 35 35 35 35 35 36 37 38 39 39 38 37
17 17 17 18 19 20 21 22 23 23 22 23 24 27 28 30 31 34 37 40 43 45 45 45 43 42 41 40 40 38 37 37 37 37 38 39 39 38 38 40 41 41 39
19 19 19 20 21 21 23 24 25 25 24 24 24 25 26 27 28 29 30 33 36 41 45 47 46 45 44 43 42 42 42 40 39 38 39 40 40 40 39 39 40 42 42
21 21 22 22 23 24 26 28 30 30 30 29 29 29 29 30 30 29 29 28 29 30 32 35 37 39 40 41 41 41 41 41 41 40 40 40 40 39 39 38 38 38 39
25 27 28 28 28 29 31 32 34 35 35 36 36 36 36 36 36 34 33 32 31 31 32 32 32 32 33 34 36 36 36 36 37 37 38 39 40 39 38 38 38 37 36
23 25 26 27 28 30 32 35 37 38 39 40 40 40 40 41 41 40 38 37 36 36 36 37 36 35 34 34 34 33 34 34 35 36 37 37 38 39 39 38 37 38 38
22 23 24 25 26 28 30 33 35 37 38 39 40 41 42 43 44 44 43 43 43 43 43 43 43 42 41 40 40 40 39 38 37 36 38 38 38 39 39 39 38 39 40
22 24 25 26 28 29 29 30 32 33 35 37 38 39 40 41 42 43 44 46 47 47 47 48 48 47 46 46 45 44 44 43 42 40 39 39 40 41 42 41 41 41 41
21 23 25 26 28 29 30 31 31 33 34 36 38 40 41 42 42 42 43 45 47 49 50 50 50 49 49 49 49 49 49 49 48 48 46 44 44 44 44 45 45 45 45
20 21 23 25 27 29 31 32 34 35 35 36 38 39 41 42 43 44 44 44 45 47 49 51 52 52 52 52 53 53 52 52 52 51 51 50 49 49 48 48 48 48 48
21 23 25 27 30 32 34 35 35 36 36 36 36 36 37 39 40 42 43 45 45 46 47 48 50 52 53 54 55 54 53 52 51 51 50 51 51 50 50 50 50 51 51
25 26 27 29 32 33 34 35 36 37 37 37 37 37 37 37 37 38 39 41 43 45 47 49 50 51 52 53 53 53 53 52 51 51 50 49 49 49 50 51 52 53 54
28 29 30 31 33 35 36 38 39 40 41 41 40 40 40 40 40 40 41 43 44 46 47 49 50 50 51 52 52 51 51 51 51 51 51 51 50 50 50 50 51 53 54
30 31 32 34 36 39 40 41 42 42 42 42 41 41 41 41 40 40 41 41 41 42 42 42 43 45 46 48 49 50 50 50 50 51 51 52 53 52 52 51 51 51 51
32 32 33 36 38 41 42 42 42 43 42 42 42 41 41 40 38 37 37 36 36 35 35 34 35 36 38 41 44 46 48 49 50 51 52 52 53 54 54 54 54 53 52
Wind_Direction
264 265 261 256 254 254 258 261 264 265 267 268 269 269 270 270 270 269 269 271 272 270 267 258 249 247 251 257 262 265 265 267 272 277 281 286 287 278 268 267 266 246 225
269 269 265 262 261 260 261 263 264 266 267 268 267 267 268 270 271 269 268 269 268 265 263 255 246 245 250 253 258 263 261 261 264 267 274 273 272 263 256 251 243 235 226
274 273 271 269 267 266 264 263 263 265 268 269 267 267 267 268 268 268 268 266 265 262 259 253 245 244 248 250 256 260 259 257 258 259 262 257 256 251 254 252 242 236 236
272 271 271 270 270 270 270 269 267 266 267 267 266 267 266 264 267 269 268 267 267 261 256 250 245 244 247 250 254 256 255 253 253 252 250 247 246 246 250 251 242 238 239
268 268 267 266 267 269 269 270 269 267 266 266 265 263 261 262 264 268 268 265 262 256 251 246 242 242 244 246 248 247 247 249 248 245 242 240 242 245 249 250 243 241 243
264 264 263 263 264 265 266 267 267 266 266 266 264 259 257 258 260 263 264 263 257 251 249 245 239 237 240 243 243 244 246 249 246 242 239 238 241 244 247 249 246 246 247
264 262 260 259 260 262 263 264 263 263 263 264 263 261 257 256 258 259 260 259 255 251 248 246 242 241 243 246 247 248 248 248 245 241 239 236 237 241 245 249 248 250 253
264 261 259 257 258 258 259 260 260 259 259 261 261 261 260 258 258 257 256 252 250 249 248 248 247 246 247 249 249 249 248 247 246 243 242 243 243 244 246 248 250 252 254
265 262 260 260 260 260 261 261 260 258 256 256 257 258 258 258 256 254 252 250 249 248 247 247 247 246 247 247 247 246 246 246 244 242 243 243 245 246 246 247 249 252 254
267 263 261 260 260 261 261 261 261 260 259 256 256 255 256 255 254 253 252 252 251 250 248 248 248 248 248 247 246 245 246 247 247 246 245 245 245 245 247 247 249 251 253
268 264 260 257 255 255 256 255 255 255 256 258 258 257 255 252 252 253 254 254 253 251 249 250 250 250 251 250 249 248 248 247 248 248 248 249 250 249 248 249 249 250 252
269 266 261 256 254 254 254 254 252 251 249 249 252 253 255 255 255 255 255 254 254 253 251 251 251 252 252 254 254 252 252 251 251 252 252 253 254 255 254 252 251 250 251
261 258 253 250 253 257 261 264 262 261 263 263 262 260 259 258 259 259 258 256 255 255 254 254 254 252 252 254 255 255 255 255 255 255 255 256 257 258 257 256 254 252 251
251 248 249 250 253 261 267 270 271 272 277 282 285 283 278 274 269 268 267 265 261 259 257 256 254 253 253 255 257 257 257 258 258 258 258 258 257 257 257 257 256 255 254
254 252 253 256 260 265 268 266 267 271 274 276 279 280 279 277 274 272 270 268 264 263 262 261 259 257 256 256 258 260 260 259 259 258 258 257 256 255 255 254 254 255 255
267 266 266 268 268 267 265 264 267 270 271 272 275 276 275 274 272 270 269 266 262 260 261 262 263 263 263 261 261 261 261 261 260 260 259 257 256 254 253 252 252 252 253
275 274 275 275 274 273 270 268 269 270 270 270 273 273 272 272 270 268 266 264 261 258 257 259 261 263 264 266 266 266 266 264 260 258 258 258 257 256 254 252 251 252 252
285 284 282 281 280 278 277 277 276 276 275 273 272 270 269 269 268 266 264 261 259 256 256 258 261 263 265 266 268 270 271 271 268 264 261 259 258 258 257 256 254 252 252
289 288 287 286 285 285 285 285 284 284 282 280 277 275 272 270 267 264 262 261 260 258 257 258 260 261 263 264 265 266 266 267 267 266 265 262 259 259 259 258 256 255 254
291 289 288 287 287 288 289 289 288 287 286 284 281 279 278 275 272 268 264 262 260 259 259 259 259 260 261 261 262 262 262 263 264 265 264 262 260 261 261 261 259 257 256
300 295 292 290 290 290 290 290 290 289 288 287 284 280 278 275 273 271 268 265 262 261 260 259 259 259 259 260 260 260 261 261 262 262 263 261 259 258 258 259 259 258 257
310 304 300 298 295 294 294 294 294 294 293 291 287 283 279 276 273 271 269 267 266 264 263 261 260 259 258 258 258 258 258 258 259 259 259 258 257 256 254 253 254 254 254
313 308 304 301 299 298 298 299 300 302 303 302 299 294 288 283 277 273 270 268 268 268 267 266 264 262 260 259 259 259 258 257 256 256 255 254 254 254 253 252 251 252 252
312 310 308 305 304 303 303 302 301 300 300 300 298 296 293 290 286 281 278 276 275 274 273 271 268 264 260 258 257 257 258 257 257 255 254 253 253 253 253 253 252 252 253
317 314 312 310 308 306 306 305 303 302 301 301 299 297 295 292 289 285 283 281 280 279 276 272 268 264 260 257 255 256 256 257 257 256 255 255 254 253 253 253 253 253 254
320 315 312 311 311 311 312 311 309 308 307 306 304 302 300 296 292 287 284 281 280 278 275 271 267 264 261 258 256 256 256 257 257 257 257 256 255 254 254 254 254 254 254
Height
5790 5791 5792 5794 5795 5796 5797 5798 5799 5799 5801 5801 5802 5802 5802 5802 5802 5802 5802 5802 5802 5802 5802 5803 5804 5805 5806 5807 5808 5809 5810 5810 5810 5810 5810 5810 5809 5809 5808 5808 5808 5807 5807
5784 5785 5786 5786 5787 5788 5788 5789 5790 5791 5792 5793 5794 5794 5794 5794 5794 5794 5794 5794 5793 5793 5794 5795 5797 5797 5799 5800 5802 5803 5804 5804 5805 5805 5805 5805 5806 5806 5806 5805 5805 5806 5806
5777 5777 5777 5778 5778 5779 5780 5780 5781 5782 5783 5784 5785 5786 5786 5786 5786 5786 5785 5785 5784 5784 5785 5787 5789 5790 5792 5793 5795 5796 5797 5798 5799 5799 5800 5801 5801 5802 5803 5802 5803 5804 5805
5771 5770 5770 5770 5770 5770 5771 5772 5772 5773 5774 5775 5776 5777 5778 5778 5778 5778 5777 5777 5776 5776 5777 5778 5780 5783 5785 5787 5788 5789 5790 5791 5792 5793 5795 5796 5796 5797 5798 5798 5799 5800 5802
5763 5763 5762 5761 5762 5762 5762 5763 5763 5764 5766 5767 5767 5768 5768 5768 5769 5770 5769 5768 5768 5769 5769 5770 5772 5775 5778 5780 5781 5782 5783 5784 5785 5787 5788 5789 5791 5793 5794 5794 5795 5796 5798
5754 5753 5753 5753 5752 5753 5753 5754 5755 5756 5757 5757 5758 5758 5758 5759 5760 5761 5761 5761 5761 5762 5763 5764 5765 5768 5770 5772 5774 5775 5776 5778 5779 5780 5781 5783 5785 5787 5789 5790 5791 5793 5794
5742 5742 5742 5742 5742 5742 5743 5744 5745 5746 5746 5748 5749 5749 5749 5750 5751 5752 5753 5754 5755 5756 5756 5758 5759 5761 5763 5765 5767 5769 5770 5772 5774 5775 5775 5776 5779 5781 5784 5786 5787 5788 5789
5728 5729 5729 5729 5730 5730 5731 5732 5734 5735 5736 5738 5739 5740 5740 5741 5742 5743 5744 5746 5747 5749 5750 5751 5752 5754 5755 5757 5759 5761 5763 5765 5767 5768 5770 5771 5773 5775 5777 5779 5780 5782 5783
5715 5716 5716 5716 5717 5718 5719 5720 5721 5723 5726 5728 5729 5730 5731 5732 5733 5735 5737 5738 5740 5741 5743 5744 5746 5747 5748 5750 5752 5753 5754 5756 5758 5760 5762 5764 5766 5768 5769 5771 5773 5775 5777
5704 5704 5705 5706 5707 5708 5709 5710 5711 5712 5714 5716 5719 5721 5721 5722 5724 5726 5728 5730 5732 5733 5735 5737 5739 5740 5742 5743 5745 5746 5747 5748 5750 5752 5754 5756 5758 5760 5762 5763 5765 5767 5769
5696 5696 5697 5698 5699 5701 5701 5702 5703 5704 5705 5706 5708 5710 5711 5712 5714 5716 5718 5721 5722 5724 5726 5728 5730 5732 5733 5736 5737 5738 5739 5741 5742 5743 5745 5747 5749 5751 5753 5755 5757 5758 5760
5691 5691 5692 5693 5694 5694 5695 5695 5696 5696 5697 5697 5698 5699 5701 5702 5704 5705 5707 5710 5712 5714 5716 5718 5720 5722 5724 5726 5728 5729 5731 5733 5734 5735 5736 5737 5739 5740 5742 5745 5747 5749 5751
5688 5688 5688 5689 5689 5689 5690 5690 5690 5690 5690 5690 5690 5691 5692 5694 5695 5697 5698 5699 5701 5703 5705 5707 5709 5711 5713 5715 5718 5720 5721 5723 5724 5726 5727 5728 5729 5731 5732 5734 5736 5738 5740
5683 5684 5684 5684 5684 5684 5684 5684 5684 5684 5684 5684 5684 5684 5684 5685 5686 5687 5688 5689 5690 5691 5693 5695 5697 5699 5701 5703 5706 5708 5710 5712 5713 5715 5716 5718 5719 5721 5722 5723 5725 5727 5730
5678 5678 5678 5678 5678 5678 5677 5677 5677 5677 5677 5677 5676 5676 5676 5677 5678 5678 5679 5679 5680 5681 5682 5683 5685 5686 5689 5691 5694 5696 5697 5699 5701 5703 5705 5707 5708 5709 5711 5712 5714 5716 5718
5673 5672 5672 5671 5671 5670 5670 5669 5668 5668 5668 5667 5667 5667 5667 5668 5668 5669 5670 5670 5671 5672 5673 5674 5675 5676 5678 5680 5682 5684 5686 5688 5690 5692 5694 5696 5697 5698 5700 5702 5704 5706 5708
5666 5665 5664 5663 5662 5661 5660 5659 5659 5658 5657 5657 5656 5656 5656 5656 5657 5658 5659 5660 5661 5663 5664 5664 5665 5667 5668 5669 5671 5672 5674 5676 5678 5680 5682 5684 5685 5686 5688 5690 5692 5694 5696
5659 5658 5657 5655 5653 5652 5650 5649 5648 5647 5646 5645 5645 5644 5644 5644 5644 5645 5646 5647 5649 5650 5651 5652 5653 5654 5656 5657 5658 5660 5661 5663 5665 5668 5669 5670 5672 5673 5675 5678 5680 5682 5684
5653 5651 5649 5647 5646 5644 5642 5640 5638 5636 5634 5632 5631 5631 5630 5630 5630 5631 5631 5632 5633 5635 5636 5637 5639 5640 5641 5643 5644 5646 5648 5650 5651 5653 5656 5657 5659 5661 5663 5665 5667 5669 5670
5646 5644 5642 5640 5638 5635 5633 5630 5628 5625 5623 5620 5618 5617 5616 5615 5615 5616 5616 5617 5618 5618 5619 5620 5622 5624 5625 5627 5628 5630 5632 5634 5637 5639 5641 5644 5646 5647 5649 5651 5653 5655 5656
5639 5636 5634 5631 5629 5626 5623 5621 5618 5615 5612 5609 5607 5604 5602 5601 5600 5600 5600 5601 5601 5602 5602 5603 5604 5606 5607 5609 5610 5612 5614 5617 5620 5622 5624 5627 5630 5632 5634 5636 5638 5640 5642
5631 5629 5626 5623 5620 5617 5613 5610 5607 5604 5600 5597 5593 5591 5588 5587 5585 5584 5584 5584 5584 5584 5585 5585 5586 5587 5588 5589 5591 5593 5595 5598 5601 5604 5606 5608 5611 5615 5618 5621 5623 5624 5626
5623 5620 5617 5614 5611 5607 5603 5599 5595 5591 5587 5583 5579 5576 5574 5572 5570 5569 5568 5568 5567 5567 5567 5567 5567 5568 5569 5570 5572 5574 5576 5579 5583 5585 5588 5591 5593 5597 5600 5604 5606 5608 5610
5616 5613 5609 5605 5601 5597 5593 5589 5584 5580 5575 5571 5566 5562 5559 5557 5555 5553 5552 5551 5551 5550 5549 5548 5547 5548 5549 5551 5553 5556 5558 5561 5564 5567 5570 5573 5576 5579 5582 5585 5588 5591 5593
5608 5605 5601 5597 5592 5588 5583 5578 5573 5568 5563 5558 5553 5548 5544 5541 5539 5537 5535 5534 5533 5531 5530 5530 5529 5529 5530 5533 5536 5539 5541 5544 5546 5549 5552 5555 5558 5561 5563 5566 5569 5572 5575
5601 5597 5593 5588 5583 5578 5572 5567 5561 5555 5549 5544 5538 5534 5529 5526 5523 5521 5519 5518 5517 5516 5515 5515 5515 5515 5516 5517 5520 5522 5525 5527 5529 5532 5534 5537 5539 5542 5544 5547 5550 5553 5556